TimeEDT,TemperatureF,Dew PointF,Humidity,Sea Level PressureIn,VisibilityMPH,Wind Direction,Wind SpeedMPH,Gust SpeedMPH,PrecipitationIn,Events,Conditions,WindDirDegrees,DateUTC
12:53 AM,70.0,62.1,76,30.22,10.0,East,3.5,-,N/A,,Clear,80,2013-07-14 04:53:00
1:53 AM,66.9,61.0,81,30.23,10.0,East,4.6,-,N/A,,Clear,90,2013-07-14 05:53:00
2:53 AM,66.9,62.1,84,30.23,10.0,NNE,3.5,-,N/A,,Clear,30,2013-07-14 06:53:00
3:53 AM,66.0,62.1,87,30.23,10.0,East,4.6,-,N/A,,Clear,100,2013-07-14 07:53:00
4:53 AM,64.9,61.0,87,30.23,10.0,East,3.5,-,N/A,,Clear,80,2013-07-14 08:53:00
5:53 AM,64.0,60.1,87,30.25,10.0,East,3.5,-,N/A,,Clear,90,2013-07-14 09:53:00
6:53 AM,64.9,62.1,90,30.26,9.0,Calm,Calm,-,N/A,,Clear,0,2013-07-14 10:53:00
7:53 AM,70.0,63.0,78,30.27,10.0,East,3.5,-,N/A,,Clear,80,2013-07-14 11:53:00
8:53 AM,75.9,66.9,74,30.27,10.0,Calm,Calm,-,N/A,,Clear,0,2013-07-14 12:53:00
9:53 AM,81.0,68.0,65,30.26,10.0,Calm,Calm,-,N/A,,Clear,0,2013-07-14 13:53:00
10:53 AM,82.9,66.9,58,30.26,10.0,SE,4.6,-,N/A,,Clear,140,2013-07-14 14:53:00
11:53 AM,82.9,66.0,56,30.27,10.0,SSW,4.6,-,N/A,,Mostly Cloudy,200,2013-07-14 15:53:00
12:53 PM,86.0,66.9,53,30.26,10.0,Variable,4.6,-,N/A,,Partly Cloudy,0,2013-07-14 16:53:00
1:53 PM,88.0,66.9,49,30.25,10.0,SSE,5.8,-,N/A,,Mostly Cloudy,150,2013-07-14 17:53:00
2:53 PM,88.0,66.0,48,30.25,10.0,Calm,Calm,-,N/A,,Mostly Cloudy,0,2013-07-14 18:53:00
3:53 PM,88.0,66.9,49,30.24,10.0,ESE,4.6,-,N/A,,Mostly Cloudy,120,2013-07-14 19:53:00
4:53 PM,89.1,66.0,46,30.23,10.0,SSE,5.8,-,N/A,,Mostly Cloudy,150,2013-07-14 20:53:00
5:53 PM,89.1,66.0,46,30.24,10.0,Calm,Calm,-,N/A,,Scattered Clouds,0,2013-07-14 21:53:00
6:53 PM,88.0,66.9,49,30.22,10.0,ESE,5.8,-,N/A,,Mostly Cloudy,120,2013-07-14 22:53:00
7:17 PM,87.8,68.0,52,30.24,10.0,SSE,4.6,-,N/A,,Mostly Cloudy,150,2013-07-14 23:17:00
7:53 PM,84.9,68.0,57,30.22,10.0,SE,4.6,-,N/A,,Partly Cloudy,140,2013-07-14 23:53:00
8:53 PM,82.0,68.0,62,30.22,10.0,ESE,6.9,-,N/A,,Clear,110,2013-07-15 00:53:00
9:53 PM,79.0,68.0,69,30.24,6.0,SE,5.8,-,N/A,,Haze,130,2013-07-15 01:53:00
10:53 PM,78.1,68.0,71,30.25,10.0,ESE,3.5,-,N/A,,Clear,110,2013-07-15 02:53:00
11:53 PM,78.1,68.0,71,30.26,10.0,South,3.5,-,N/A,,Clear,180,2013-07-15 03:53:00